Regional Weather Roundup
Issued by NWS State College, PA

Home | Current Version | Previous Version | Graphics & Text | Print | Product List | Glossary On
Versions: 1 2 3 4 5 6 7 8 9 10 11 12 13 14 15 16 17 18 19 20 21 22 23 24 25 26 27 28 29 30 31 32 33 34 35 36 37 38 39 40 41 42 43 44 45 46 47 48 49 50
000
ASUS41 KCTP 150410
RWRCTP

REGIONAL WEATHER ROUNDUP
NATIONAL WEATHER SERVICE STATE COLLEGE PA
1100 PM EST THU DEC 14 2017

Note: "fair" indicates few or no clouds below 12,000 feet with no
significant weather and/or obstructions to visibility.

* = STATION THAT DOES NOT REPORT PRECIPITATION /E.G. RAIN...SNOW...ETC/
    THUNDER OR FOG.

PAZ002>004-007>009-013>016-020>023-029>032-150500-
WESTERN PENNSYLVANIA

CITY           SKY/WX    TMP DP  RH WIND       PRES   REMARKS
ERIE           CLOUDY    22  14  71 SW12      30.04F WCI  10
MEADVILLE      CLOUDY    13  12  96 S5        30.01F WCI   5
FRANKLIN*      FLURRIES  14  10  84 SW3       30.01F
NEW CASTLE     FAIR      11   9  92 CALM      30.06S
BEAVER COUNTY  NOT AVBL
BUTLER*        CLOUDY    11   8  88 CALM      30.04S
PITTSBURGH INT CLOUDY    18  11  74 CALM      30.03S
PITTSBURGH     CLOUDY    20  11  68 CALM      30.03R
INDIANA*       CLOUDY    10   9  92 CALM      30.07R
LATROBE        CLOUDY    14  10  85 CALM      30.05S
WASHINGTON CO* CLOUDY    16  13  88 CALM      30.07
$$

PAZ004>006-010>012-017>019-024>028-033>037-041-042-045-046-049>053-150500-
CENTRAL PENNSYLVANIA

CITY           SKY/WX    TMP DP  RH WIND       PRES   REMARKS
BRADFORD         N/A     15   9  76 SW3       29.95R
DUBOIS         CLOUDY    14   6  70 CALM      29.98S
CLEARFIELD     CLOUDY    11   6  81 CALM      30.02S
JOHNSTOWN      CLOUDY    15   7  70 SW3       29.95S
ALTOONA        CLOUDY    14   7  73 S6        30.03R WCI   5
STATE COLLEGE  CLOUDY    15   6  65 W6        30.04S WCI   7
WILLIAMSPORT   CLEAR     13   5  70 E3        30.09R
SELINSGROVE    PTCLDY    10   6  84 CALM      30.10S
FT INDIANTOWN  PTCLDY    22   5  49 CALM      30.09F
CAPITAL CITY   PTCLDY    23   8  52 SW3       30.11R
HARRISBURG     CLOUDY    24   9  52 CALM      30.11R
YORK           CLOUDY    23  12  62 CALM      30.11R
$$

PAZ038>040-043-044-047-048-054-055-060>062-067>071-150500-
EASTERN PENNSYLVANIA

CITY           SKY/WX    TMP DP  RH WIND       PRES   REMARKS
SCRANTON       CLEAR     12   3  67 S3        30.05R
MOUNT POCONO   CLEAR      9   1  70 W8        29.95R WCI  -3
ALLENTOWN      CLOUDY    22   5  48 W7        30.08F WCI  13
QUAKERTOWN*    CLOUDY    21   5  49 NW3       30.08F
READING        PTCLDY    21   9  59 N5        30.10R WCI  15
LANCASTER      CLEAR     23   9  55 N7        30.10R WCI  15
COATESVILLE    CLEAR     23   9  54 NW8       30.09R WCI  14
POTTSTOWN      CLEAR     20   5  52 NW3       30.11S
BLUE BELL      CLEAR     23   9  54 CALM      30.12R
DOYLESTOWN     PTCLDY    18   7  62 N3        30.08S
WILLOW GROVE   NOT AVBL
NORTH PHILA    CLEAR     26   8  46 NW10      30.13R
PHILADELPHIA   CLOUDY    27  10  49 NW8       30.13R
$$



USA.gov is the U.S. government's official web portal to all federal, state and local government web resources and services.